Temperature
0 1 1 1 1 1 1 1 1 2 2 3 3 3 4 4 4 4 4 4 4 4 4 4 4 4 4 4 4 4 4 4 4 4 4 4 4 4 3 3 3 3 3 3
-0 1 1 1 1 1 1 1 1 1 2 3 3 3 3 3 3 4 4 4 4 4 4 4 4 4 4 4 4 4 4 4 4 3 3 3 3 3 3 3 3 3 3 3
0 -0 0 1 1 1 0 0 1 2 3 3 2 2 2 3 3 4 4 4 4 4 4 4 4 4 4 4 4 3 3 3 3 3 3 3 3 2 2 2 2 2 2 2
-1 -1 1 2 1 1 1 1 0 1 1 2 2 3 3 3 4 4 4 4 4 4 3 3 3 3 3 3 3 3 3 3 3 3 2 2 2 2 2 2 2 2 2 2
-1 -1 -0 1 1 1 1 1 1 1 1 1 2 2 2 4 4 4 4 4 3 3 3 3 3 3 3 3 3 3 3 2 2 2 2 2 2 2 1 1 1 1 1 1
-2 -1 0 2 2 1 1 2 2 1 1 1 1 1 2 3 3 3 3 3 3 3 3 3 3 3 3 2 2 2 2 2 2 2 2 1 1 1 1 1 1 1 1 1
-1 -1 0 1 1 1 2 2 2 2 2 1 0 2 3 3 3 3 3 3 3 3 3 2 2 2 2 2 2 2 2 2 1 1 1 1 1 1 0 0 0 0 0 0
-2 -1 1 1 0 1 1 2 2 2 2 2 2 2 2 3 3 3 3 3 2 2 2 2 2 2 2 2 2 1 1 1 1 1 1 0 0 -0 -0 -0 -0 -0 -0 -0
-1 0 1 1 1 2 2 2 2 2 2 2 2 2 2 2 2 2 2 2 2 2 2 2 1 1 2 1 1 1 1 1 0 0 0 -0 -0 -1 -1 -1 -1 -1 -1 -1
-2 -1 -0 1 1 2 2 2 2 2 2 1 1 1 1 2 2 2 2 2 1 1 1 1 1 1 1 1 1 0 0 0 -0 -0 -0 -1 -1 -1 -1 -1 -2 -2 -2 -2
-2 -1 -1 1 1 2 2 2 2 2 1 1 1 1 1 1 1 1 1 1 1 1 1 1 1 1 0 0 0 -0 -0 -0 -1 -1 -1 -1 -1 -2 -2 -2 -2 -2 -2 -2
-1 -0 -1 0 1 1 1 1 1 1 1 1 1 1 1 1 1 1 1 1 1 0 0 0 0 0 -0 -0 -0 -1 -1 -1 -1 -1 -1 -2 -2 -2 -2 -2 -2 -3 -3 -3
0 0 0 1 1 1 1 1 1 1 0 0 0 0 0 0 0 0 0 0 -0 0 -0 -0 -0 -0 -1 -1 -1 -1 -1 -1 -2 -2 -2 -2 -2 -3 -3 -3 -3 -3 -3 -3
-0 -0 -0 0 0 0 0 0 -0 -0 -0 -0 -0 -1 -0 -0 -0 -0 -0 -0 -0 -0 -1 -1 -1 -1 -1 -1 -2 -2 -2 -2 -2 -2 -2 -3 -3 -3 -3 -3 -3 -3 -3 -3
-0 -0 -0 -0 -0 -0 -1 -1 -1 -1 -1 -1 -1 -1 -1 -1 -1 -1 -1 -1 -1 -1 -1 -1 -1 -1 -2 -2 -2 -2 -2 -2 -3 -3 -3 -3 -3 -3 -4 -4 -4 -4 -4 -4
-1 -1 -1 -1 -1 -1 -1 -1 -1 -1 -2 -2 -2 -2 -2 -2 -2 -1 -1 -2 -2 -1 -1 -2 -2 -2 -2 -2 -2 -3 -3 -3 -3 -3 -3 -3 -4 -4 -4 -4 -4 -4 -4 -4
-2 -2 -2 -2 -1 -1 -1 -1 -2 -2 -2 -2 -2 -2 -2 -2 -2 -2 -2 -2 -2 -2 -2 -2 -2 -2 -2 -3 -3 -3 -3 -3 -3 -4 -4 -4 -4 -4 -4 -4 -4 -4 -4 -4
-1 -1 -1 -1 -1 -2 -2 -2 -2 -2 -2 -2 -2 -3 -3 -3 -2 -2 -3 -3 -3 -3 -3 -3 -3 -3 -3 -3 -3 -3 -3 -4 -4 -4 -4 -4 -4 -5 -5 -5 -5 -5 -4 -5
-1 -2 -2 -2 -2 -2 -2 -2 -2 -3 -3 -3 -3 -3 -3 -3 -3 -3 -3 -3 -3 -3 -3 -3 -3 -4 -4 -4 -4 -4 -4 -4 -4 -4 -4 -5 -5 -5 -5 -5 -5 -5 -5 -5
-2 -2 -2 -2 -2 -3 -3 -3 -3 -3 -3 -3 -3 -3 -4 -3 -4 -4 -3 -3 -3 -4 -4 -4 -4 -4 -4 -4 -4 -4 -4 -4 -4 -5 -5 -5 -5 -5 -5 -5 -5 -5 -5 -5
-3 -3 -3 -3 -3 -3 -3 -3 -3 -3 -3 -4 -4 -4 -4 -4 -4 -4 -4 -4 -4 -4 -4 -4 -4 -4 -4 -4 -5 -5 -5 -5 -5 -5 -5 -5 -5 -5 -5 -5 -5 -5 -6 -6
-3 -3 -3 -3 -3 -3 -3 -3 -4 -4 -4 -4 -4 -4 -4 -4 -4 -4 -4 -4 -4 -4 -4 -4 -5 -5 -5 -5 -5 -5 -5 -5 -5 -5 -5 -6 -6 -6 -6 -6 -6 -6 -6 -6
-3 -3 -3 -4 -4 -4 -4 -4 -4 -4 -4 -4 -4 -4 -4 -4 -5 -5 -5 -5 -5 -5 -5 -5 -5 -5 -5 -5 -5 -5 -5 -6 -6 -6 -6 -6 -6 -6 -6 -6 -6 -6 -6 -6
-4 -4 -4 -4 -4 -4 -4 -4 -5 -5 -5 -5 -5 -5 -5 -5 -5 -5 -5 -5 -5 -5 -5 -5 -5 -5 -6 -6 -6 -6 -6 -6 -6 -6 -6 -6 -6 -6 -6 -6 -6 -6 -6 -6
-4 -4 -4 -4 -4 -5 -5 -5 -5 -5 -5 -5 -5 -5 -5 -5 -5 -5 -5 -5 -6 -6 -6 -6 -6 -6 -6 -6 -6 -6 -6 -6 -6 -6 -6 -6 -7 -6 -6 -7 -7 -7 -6 -7
-5 -5 -5 -5 -5 -5 -5 -5 -5 -5 -6 -6 -5 -6 -6 -6 -6 -6 -6 -6 -6 -6 -6 -6 -6 -6 -6 -6 -6 -6 -6 -6 -7 -7 -7 -7 -7 -7 -7 -7 -7 -7 -7 -7
-5 -5 -5 -5 -5 -5 -6 -6 -6 -6 -6 -6 -6 -6 -6 -6 -6 -6 -6 -6 -7 -7 -7 -7 -7 -7 -7 -7 -7 -7 -7 -7 -7 -7 -7 -7 -7 -7 -7 -7 -7 -7 -7 -7
Wind_Speed
7 7 6 8 9 9 11 10 10 10 11 13 10 8 6 4 4 3 3 3 3 3 3 3 3 3 3 3 3 4 4 4 4 4 3 3 3 3 3 2 3 3 3 3
5 6 6 9 11 11 12 10 11 12 15 12 9 5 5 5 4 5 5 5 5 4 4 4 4 4 4 3 3 4 4 4 3 3 3 3 3 3 2 2 2 2 2 3
4 4 3 8 10 10 8 8 8 12 13 7 6 6 7 6 6 7 7 6 6 5 6 5 5 5 5 4 3 4 4 4 4 4 4 3 3 3 3 2 2 2 2 2
2 1 8 8 4 7 9 9 10 9 8 6 7 7 6 6 6 7 5 5 5 5 5 4 4 4 4 4 4 4 4 4 4 4 4 3 3 3 3 2 2 2 2 2
2 5 9 9 4 5 7 8 9 11 10 7 4 4 6 4 4 6 5 5 5 5 4 4 4 5 5 4 4 4 5 5 5 5 5 4 4 3 3 2 2 2 2 2
4 4 7 7 3 3 3 6 5 7 8 6 1 3 6 4 3 4 4 3 3 3 2 3 4 4 5 5 5 6 6 5 5 5 5 5 4 3 2 2 3 2 2 2
6 7 9 7 2 4 4 7 4 5 6 5 6 7 6 4 4 4 4 3 3 3 3 4 4 4 5 5 6 6 5 4 4 5 5 5 4 3 3 2 2 2 2 2
5 6 8 2 4 6 6 5 3 3 4 4 5 6 5 4 4 3 3 3 2 2 3 3 4 6 6 6 5 4 4 4 4 4 4 4 4 3 3 3 3 2 2 2
8 8 5 4 6 6 5 6 5 4 4 4 5 5 5 4 4 3 3 3 2 2 3 3 4 6 6 5 4 4 4 5 4 4 3 4 4 4 3 3 3 3 3 3
6 8 7 7 7 6 6 6 6 5 5 4 5 5 5 4 4 3 3 2 2 2 2 3 3 4 5 4 4 5 5 5 4 4 4 3 3 4 4 4 4 4 4 4
8 8 7 7 6 6 6 5 5 5 5 5 4 5 5 4 4 3 3 2 2 2 3 4 3 3 4 4 5 5 5 4 4 4 4 4 4 4 5 5 6 6 5 4
8 7 6 7 6 5 5 6 6 5 5 4 4 5 4 5 4 3 3 3 2 3 3 3 3 3 3 4 5 6 5 4 4 4 4 3 3 3 5 5 7 8 7 6
8 7 7 9 8 5 5 6 6 5 5 5 4 4 4 4 4 3 3 3 3 4 3 3 2 3 3 3 4 5 5 5 4 4 4 4 3 3 2 2 4 5 6 6
7 6 7 7 7 6 6 6 4 4 4 4 4 3 3 3 3 3 3 3 3 2 2 2 2 3 3 3 4 5 5 5 4 4 4 4 4 4 3 3 2 2 3 4
8 7 8 7 6 6 5 3 3 4 3 3 3 3 3 3 4 4 3 2 1 1 2 2 3 3 2 3 4 4 4 4 4 3 3 3 3 3 3 3 3 2 1 2
6 5 5 5 6 6 4 4 4 5 4 3 3 3 3 3 3 3 2 2 2 2 3 3 3 3 2 3 3 3 3 5 4 3 3 3 3 3 3 3 3 2 2 2
4 5 4 5 6 6 5 5 5 5 4 4 4 3 2 1 2 2 2 2 2 3 3 3 3 2 2 3 3 3 3 4 5 3 3 3 3 4 3 3 3 3 2 2
6 6 6 6 5 5 5 4 4 3 3 3 2 2 2 2 3 3 2 1 1 1 2 2 2 2 2 3 3 3 3 3 3 3 3 3 3 3 3 3 3 3 1 2
4 4 4 3 3 4 4 3 3 2 2 2 2 2 2 2 2 2 1 1 1 2 2 2 1 1 1 2 3 2 3 3 2 2 2 4 3 2 3 3 3 2 2 1
3 3 2 2 2 2 2 2 1 1 1 1 1 1 1 1 1 1 1 1 2 2 2 1 1 1 1 2 2 2 3 3 3 3 2 2 3 2 2 2 2 2 2 2
3 2 2 2 2 2 1 1 0 1 1 1 1 2 1 1 1 1 1 1 2 1 1 1 0 1 1 1 2 2 2 2 2 2 3 2 2 2 2 2 2 2 2 2
3 2 2 2 2 2 2 1 1 0 1 0 0 1 1 1 1 0 1 1 1 1 1 0 0 1 1 1 1 2 2 2 2 2 2 2 2 2 2 2 2 2 2 2
2 1 1 1 1 1 2 2 2 1 1 1 1 1 1 0 0 0 1 1 1 1 1 0 0 1 2 2 1 1 2 2 1 1 2 2 2 2 3 3 2 2 2 2
2 1 1 2 2 2 2 3 3 2 2 2 2 1 1 1 1 1 1 1 1 2 1 1 1 2 2 1 1 1 1 1 1 1 2 2 2 2 2 2 2 2 2 2
1 1 2 2 2 1 1 2 3 3 3 3 3 3 3 1 1 1 1 1 2 3 2 2 2 3 2 1 1 0 0 1 1 1 2 2 2 2 2 2 2 2 2 2
1 1 1 1 0 0 1 1 1 1 2 2 3 3 3 3 2 2 2 2 3 3 2 1 1 2 1 1 1 1 0 0 0 0 1 1 1 2 2 2 2 2 2 2
2 2 2 2 2 1 1 1 1 1 1 1 1 2 2 2 2 2 2 2 2 2 2 2 2 1 1 1 1 1 1 1 0 0 1 1 1 1 2 2 2 2 2 2
Wind_Direction
251 259 244 243 240 222 219 218 225 246 251 268 273 273 273 274 282 286 284 264 245 239 235 220 213 205 200 198 185 173 172 181 194 191 180 178 181 186 189 190 199 201 194 199
267 264 257 259 249 234 235 232 238 258 268 265 267 267 269 266 268 274 275 264 246 240 232 225 219 212 202 201 194 174 179 189 182 173 172 178 178 174 173 181 187 187 196 202
261 286 306 262 236 217 223 216 207 237 254 270 275 263 254 254 255 259 263 259 243 237 231 225 218 208 201 199 186 176 183 187 179 177 180 184 179 171 179 186 187 194 206 208
248 332 249 251 218 200 215 231 220 236 260 261 258 269 266 253 243 249 249 248 248 243 235 227 213 199 192 184 180 183 185 190 186 181 186 181 176 184 188 188 191 204 216 222
206 246 273 282 242 184 201 254 229 234 256 268 280 306 293 267 230 231 238 242 243 240 232 219 208 192 176 181 184 188 194 197 194 186 185 182 186 193 193 187 200 212 218 220
199 229 248 258 241 183 149 272 250 221 242 253 202 269 273 280 260 258 259 248 237 233 222 218 212 180 174 188 192 204 204 200 194 188 188 192 195 194 192 193 205 213 231 231
218 240 261 258 221 129 179 252 261 223 232 221 218 237 259 284 282 270 265 255 237 220 225 228 201 175 186 195 210 210 195 188 187 190 193 193 188 183 182 189 189 211 238 253
195 228 255 236 144 190 235 277 280 257 235 227 243 260 267 272 275 280 282 270 236 224 240 232 193 184 197 213 214 190 179 182 189 191 191 183 177 184 181 181 192 214 237 264
207 227 259 220 222 248 265 274 275 260 251 230 250 265 272 269 269 275 276 271 254 224 244 239 202 192 204 216 192 178 179 186 188 186 186 182 182 184 183 186 200 219 226 246
254 264 266 268 271 275 271 266 272 272 260 248 255 266 271 266 266 269 276 266 251 223 234 245 219 207 209 204 182 174 184 188 184 183 188 188 192 191 193 200 207 218 228 239
259 276 290 277 257 265 280 282 283 284 264 246 247 261 261 267 266 265 272 260 234 224 236 243 226 217 210 193 176 177 185 187 187 190 190 195 203 207 208 214 213 215 223 226
245 253 246 270 272 272 273 278 275 277 281 270 242 248 262 267 268 267 268 261 250 243 240 245 226 221 211 191 177 176 187 191 191 191 192 196 203 232 239 233 236 238 238 237
254 267 260 274 282 272 265 275 277 267 259 268 262 246 249 258 264 264 258 254 246 244 240 233 223 228 219 190 182 185 193 196 192 191 193 197 201 207 229 256 247 241 240 242
261 269 275 272 272 278 274 278 280 275 264 252 254 255 249 254 260 262 257 253 246 243 242 229 226 242 229 192 186 193 194 201 197 196 197 199 206 210 209 214 235 256 255 251
265 258 259 271 276 278 275 272 277 279 276 274 256 245 243 246 255 263 263 259 244 237 246 238 241 255 232 191 189 192 194 199 198 197 200 200 201 203 205 211 220 231 265 268
284 282 270 266 269 276 274 259 258 268 271 267 264 258 246 241 254 266 263 239 221 243 249 246 251 254 224 191 188 193 202 207 199 195 194 195 198 199 199 204 211 215 224 231
279 282 279 281 278 278 272 259 248 256 260 258 257 257 248 243 263 264 264 253 236 247 249 239 245 244 212 192 189 194 197 203 203 196 195 200 201 203 202 202 208 217 231 225
255 257 257 257 259 269 276 271 256 248 245 249 252 251 241 231 237 252 263 271 285 297 283 262 241 224 205 192 188 189 193 197 196 195 196 197 201 200 196 198 205 209 227 239
278 275 274 270 259 253 259 265 259 251 248 236 229 236 238 234 232 240 235 207 221 279 294 288 246 187 203 205 186 177 179 182 182 184 188 199 199 192 194 198 203 206 211 220
298 300 302 305 297 266 266 275 274 266 256 219 200 207 235 242 217 197 176 208 245 253 265 265 236 187 199 191 175 167 172 176 179 183 185 188 189 191 192 197 199 198 204 218
308 319 331 332 335 337 321 294 253 267 285 208 187 203 221 239 179 161 157 281 297 281 267 244 192 209 190 173 156 154 164 170 176 181 184 186 186 191 195 195 198 205 214 227
309 320 332 349 7 1 356 8 39 48 30 45 103 136 134 132 126 93 288 251 277 313 4 30 304 200 154 124 133 145 153 159 169 174 182 185 187 194 201 201 206 214 216 222
317 333 0 16 25 9 9 21 33 55 64 70 89 126 148 180 210 196 299 304 318 4 29 7 245 120 107 96 122 139 153 160 168 178 187 190 193 196 201 205 210 209 211 225
352 14 27 36 52 55 29 10 21 36 45 44 37 42 75 75 21 3 338 315 358 36 41 30 60 80 72 72 102 131 161 171 181 185 184 187 192 196 201 205 209 215 218 223
15 33 57 64 57 43 38 41 44 44 47 43 33 27 24 28 45 7 20 35 55 53 46 52 68 61 55 65 78 111 163 204 205 192 186 192 199 204 209 209 212 222 229 235
27 40 44 48 63 90 81 76 65 51 52 45 27 21 22 30 48 47 43 42 51 47 41 40 45 46 46 49 50 44 9 265 259 211 198 210 213 218 218 219 221 231 236 244
38 52 59 47 36 43 61 75 85 45 28 52 23 14 23 29 37 39 40 36 33 33 30 27 33 41 38 33 28 15 353 334 300 254 235 233 228 225 223 226 238 240 244 249
Height
1458 1455 1454 1453 1452 1453 1454 1453 1454 1445 1441 1431 1429 1427 1426 1425 1424 1424 1424 1424 1425 1425 1426 1427 1428 1430 1431 1433 1435 1437 1438 1440 1442 1443 1444 1446 1447 1448 1449 1451 1452 1453 1453 1454
1456 1452 1451 1449 1446 1447 1446 1445 1445 1441 1435 1426 1425 1425 1424 1423 1422 1422 1422 1422 1422 1423 1424 1424 1426 1427 1428 1430 1432 1434 1435 1437 1438 1440 1441 1442 1443 1444 1446 1447 1448 1449 1450 1451
1455 1453 1450 1446 1438 1439 1439 1436 1437 1436 1428 1423 1424 1423 1422 1420 1420 1419 1419 1419 1420 1420 1421 1422 1423 1424 1425 1427 1429 1431 1432 1434 1435 1436 1437 1438 1440 1441 1442 1443 1444 1445 1446 1447
1456 1455 1451 1432 1427 1428 1430 1428 1429 1426 1422 1421 1420 1419 1418 1417 1417 1416 1417 1417 1417 1417 1418 1419 1420 1421 1423 1424 1426 1428 1429 1431 1432 1433 1434 1435 1436 1437 1438 1439 1440 1441 1442 1443
1456 1453 1443 1429 1424 1425 1427 1424 1420 1421 1419 1418 1417 1416 1414 1413 1414 1414 1414 1414 1414 1414 1415 1415 1416 1417 1419 1420 1422 1424 1425 1427 1429 1430 1431 1432 1432 1434 1435 1436 1437 1438 1438 1439
1454 1450 1442 1423 1420 1419 1423 1422 1414 1414 1415 1415 1416 1418 1413 1411 1411 1411 1411 1411 1411 1411 1412 1412 1413 1414 1415 1416 1418 1420 1421 1423 1425 1426 1427 1428 1429 1430 1431 1432 1433 1434 1435 1436
1448 1444 1432 1420 1418 1419 1426 1417 1410 1410 1410 1411 1412 1412 1410 1408 1408 1408 1408 1408 1408 1408 1408 1409 1410 1411 1411 1412 1414 1416 1418 1420 1421 1422 1423 1425 1425 1426 1427 1428 1429 1430 1431 1432
1443 1441 1430 1417 1418 1419 1414 1410 1408 1408 1408 1408 1407 1407 1406 1405 1405 1405 1405 1405 1405 1405 1404 1405 1406 1407 1407 1408 1410 1413 1414 1415 1417 1418 1420 1421 1421 1422 1423 1424 1425 1426 1426 1427
1429 1424 1415 1413 1412 1411 1410 1408 1407 1406 1405 1405 1404 1403 1403 1402 1402 1402 1402 1402 1401 1401 1401 1401 1402 1403 1404 1405 1407 1408 1410 1411 1413 1414 1416 1417 1418 1418 1419 1420 1421 1421 1422 1423
1423 1415 1411 1410 1409 1407 1407 1405 1404 1404 1403 1402 1401 1400 1400 1399 1399 1399 1399 1399 1398 1398 1398 1398 1399 1400 1401 1402 1403 1404 1406 1407 1409 1410 1412 1413 1414 1414 1415 1416 1417 1417 1418 1419
1418 1411 1408 1405 1405 1404 1404 1402 1401 1400 1400 1399 1399 1398 1397 1397 1396 1397 1396 1396 1396 1395 1395 1395 1395 1396 1397 1398 1399 1401 1402 1404 1405 1406 1408 1409 1410 1410 1411 1412 1413 1414 1414 1415
1411 1406 1406 1402 1401 1401 1400 1399 1398 1397 1396 1396 1396 1395 1394 1394 1394 1394 1393 1393 1393 1392 1392 1392 1392 1393 1394 1395 1396 1397 1398 1400 1401 1403 1404 1405 1406 1407 1407 1409 1410 1411 1411 1412
1404 1402 1401 1399 1398 1397 1397 1396 1395 1394 1393 1392 1392 1392 1391 1390 1390 1390 1390 1390 1390 1389 1389 1389 1390 1390 1391 1392 1393 1394 1395 1396 1397 1399 1400 1401 1401 1402 1403 1405 1406 1406 1407 1408
1399 1399 1397 1395 1394 1393 1393 1392 1391 1390 1389 1389 1388 1388 1387 1387 1387 1387 1387 1387 1387 1387 1386 1387 1387 1387 1388 1389 1390 1391 1392 1393 1394 1395 1396 1397 1398 1399 1400 1400 1401 1402 1403 1404
1394 1394 1393 1391 1389 1389 1388 1388 1387 1385 1385 1385 1384 1384 1384 1383 1383 1383 1383 1384 1384 1384 1384 1384 1384 1384 1385 1386 1386 1387 1388 1389 1390 1391 1392 1393 1394 1395 1396 1397 1398 1398 1399 1400
1390 1389 1388 1387 1385 1384 1384 1383 1383 1382 1381 1381 1381 1380 1380 1380 1380 1380 1380 1380 1380 1380 1380 1381 1381 1381 1382 1382 1383 1384 1385 1386 1387 1388 1389 1390 1391 1392 1393 1394 1395 1395 1396 1397
1386 1384 1383 1382 1381 1380 1380 1379 1379 1378 1378 1378 1377 1377 1377 1377 1376 1376 1377 1377 1377 1377 1378 1378 1378 1378 1379 1379 1380 1381 1382 1383 1384 1385 1385 1386 1388 1389 1390 1391 1391 1392 1393 1394
1383 1382 1381 1379 1378 1377 1376 1376 1375 1375 1375 1375 1374 1374 1374 1374 1373 1373 1374 1374 1374 1374 1375 1375 1375 1375 1376 1376 1377 1378 1379 1379 1380 1381 1382 1383 1384 1386 1387 1387 1388 1389 1390 1391
1379 1378 1377 1376 1375 1374 1373 1373 1372 1372 1372 1372 1371 1371 1371 1371 1371 1371 1371 1371 1371 1371 1372 1372 1372 1373 1373 1374 1374 1375 1376 1376 1377 1378 1379 1380 1382 1383 1384 1384 1385 1386 1387 1388
1375 1375 1374 1373 1372 1371 1371 1370 1370 1369 1369 1369 1369 1369 1369 1369 1369 1369 1369 1369 1369 1369 1369 1369 1370 1370 1371 1371 1372 1372 1373 1374 1374 1375 1376 1377 1379 1380 1380 1381 1382 1383 1384 1385
1373 1372 1371 1370 1370 1369 1369 1368 1368 1367 1367 1367 1367 1367 1367 1367 1367 1367 1367 1367 1367 1367 1367 1368 1368 1368 1369 1369 1370 1370 1371 1371 1372 1373 1374 1375 1376 1377 1378 1379 1380 1381 1381 1382
1371 1370 1369 1368 1368 1367 1367 1367 1366 1366 1366 1366 1366 1365 1365 1365 1365 1365 1366 1366 1366 1366 1366 1366 1366 1366 1367 1367 1367 1368 1369 1369 1370 1371 1372 1373 1373 1374 1375 1376 1377 1378 1379 1379
1369 1368 1368 1367 1367 1366 1366 1366 1365 1365 1365 1364 1364 1364 1364 1364 1364 1364 1364 1364 1364 1364 1364 1364 1364 1365 1365 1365 1366 1366 1367 1367 1368 1369 1370 1370 1371 1372 1373 1374 1374 1375 1376 1376
1368 1367 1367 1367 1366 1366 1365 1365 1364 1364 1364 1364 1364 1364 1364 1363 1363 1363 1363 1363 1363 1363 1362 1362 1363 1363 1363 1364 1364 1365 1365 1366 1366 1367 1368 1368 1369 1370 1371 1371 1372 1373 1373 1374
1367 1367 1366 1366 1366 1365 1365 1364 1364 1364 1364 1364 1364 1364 1364 1363 1363 1362 1362 1362 1362 1362 1361 1361 1362 1362 1362 1362 1363 1363 1363 1364 1365 1365 1366 1366 1367 1368 1369 1369 1370 1371 1371 1372
1367 1366 1366 1366 1366 1365 1365 1364 1364 1364 1364 1363 1363 1363 1363 1363 1363 1362 1362 1362 1362 1361 1361 1361 1361 1361 1361 1361 1361 1362 1362 1362 1363 1364 1364 1365 1365 1366 1367 1367 1368 1368 1369 1369
1366 1366 1366 1366 1366 1365 1365 1365 1364 1364 1364 1364 1363 1363 1363 1363 1363 1362 1362 1362 1361 1361 1360 1360 1360 1360 1360 1360 1360 1360 1361 1361 1362 1362 1363 1363 1363 1364 1364 1365 1365 1366 1366 1367